Home   Weather   Stornoway   Past weeks
Flag for United Kingdom

Past Weather in Stornoway, Scotland, United Kingdom — Yesterday and Last 2 Weeks

Now
61 °F

Cool.


Feels Like: 61 °F
Forecast: 61 / 52 °F
Wind: 5 mph from East

Location: Stornoway

Current Time: Sep 21, 2019 at 8:34:04 pm

Latest Report: Sep 21, 2019 at 7:50 pm


Visibility: N/A

Pressure: 29.68 "Hg

Humidity: 68%

Dew Point: 50 °F

Location of StornowayLocation

Past Weather in Stornoway — Graph

°F

Stornoway Temperature Yesterday

Maximum temperature yesterday: 64 °F (at 1:20 pm)
Minimum temperature yesterday: 48 °F (at 11:20 pm)
Average temperature yesterday: 57 °F

High & Low Weather Summary for the Past Weeks

 TemperatureHumidityPressure
High68 °F (Sep 21, 1:50 pm)100% (Sep 8, 12:50 am)30.42 "Hg (Sep 8, 12:50 am)
Low41 °F (Sep 10, 3:50 am)51% (Sep 15, 12:50 pm)29.42 "Hg (Sep 10, 10:50 pm)
Average53 °F84%30.07 "Hg
* Reported Sep 6 7:20 pm — Sep 21 7:20 pm, Stornoway. Weather by CustomWeather, © 2019

Note: Actual official high and low records may vary slightly from our data, if they occured in-between our weather recording intervals... More about our weather records

Advertising

Stornoway Weather History for the Previous 24 Hours

Scroll right to see more
 ConditionsComfort  
Time TempWeatherWind HumidityBarometerVisibility
7:20 pm
Sat, Sep 21
63 °FMild.3 mph64%29.68 "HgN/A
6:50 pm63 °FMild.6 mph68%29.68 "HgN/A
6:20 pm66 °FMild.1 mph56%29.68 "HgN/A
5:50 pm64 °FMild.1 mph68%29.68 "HgN/A
5:20 pm68 °FMild.5 mph53%29.68 "HgN/A
4:50 pm68 °FSunny.6 mph53%29.71 "Hg10 mi
4:20 pm68 °FSunny.8 mph53%29.71 "Hg10 mi
3:50 pm68 °FPassing clouds.6 mph53%29.71 "HgN/A
3:20 pm68 °FPassing clouds.5 mph53%29.74 "HgN/A
2:50 pm68 °FPassing clouds.6 mph56%29.74 "HgN/A
2:20 pm68 °FPassing clouds.5 mph53%29.74 "HgN/A
1:50 pm68 °FSunny.7 mph53%29.77 "Hg10 mi
1:20 pm66 °FSunny.7 mph60%29.77 "Hg10 mi
12:50 pm66 °FPassing clouds.6 mph64%29.77 "HgN/A
12:20 pm64 °FSunny.6 mph60%29.77 "Hg10 mi
11:50 am66 °FSunny.7 mph56%29.80 "Hg10 mi
11:20 am66 °FSunny.8 mph52%29.80 "Hg10 mi
10:50 am64 °FSunny.9 mph60%29.80 "Hg10 mi
10:20 am63 °FSunny.8 mph64%29.80 "Hg10 mi
9:50 am63 °FSunny.7 mph64%29.83 "Hg10 mi
9:20 am61 °FSunny.3 mph72%29.83 "Hg10 mi
8:50 am54 °FSunny.No wind94%29.83 "Hg10 mi
8:20 am48 °FSunny.1 mph94%29.83 "Hg10 mi
7:50 am46 °FSunny.1 mph93%29.86 "Hg10 mi
7:20 am45 °FSunny.No wind100%29.86 "Hg10 mi
6:50 am45 °FClear.1 mph100%29.86 "Hg10 mi
6:20 am45 °FClear.2 mph100%29.86 "Hg10 mi
5:50 am46 °FCool.1 mph93%29.86 "HgN/A
5:20 am45 °FQuite cool.1 mph93%29.89 "HgN/A
4:50 am46 °FCool.1 mph93%29.89 "HgN/A
4:20 am45 °FQuite cool.No wind93%29.89 "HgN/A
3:50 am45 °FQuite cool.1 mph93%29.89 "HgN/A
3:20 am45 °FQuite cool.1 mph93%29.92 "HgN/A
2:50 am46 °FCool.No wind93%29.92 "HgN/A
2:20 am46 °FCool.No wind93%29.92 "HgN/A
1:50 am46 °FCool.No wind93%29.95 "HgN/A
1:20 am48 °FCool.No wind94%29.95 "HgN/A
12:50 am48 °FCool.No wind94%29.95 "HgN/A
12:20 am48 °FCool.1 mph94%29.95 "HgN/A
11:50 pm
Fri, Sep 20
48 °FClear.No wind94%29.98 "Hg10 mi
11:20 pm48 °FClear.2 mph94%29.98 "Hg10 mi
10:50 pm52 °FCool.1 mph82%30.01 "HgN/A
10:20 pm52 °FCool.1 mph88%30.01 "HgN/A
9:20 pm55 °FCool.2 mph88%30.01 "HgN/A
8:50 pm55 °FCool.7 mph88%30.04 "HgN/A
8:20 pm57 °FCool.7 mph82%30.04 "HgN/A
Weather by CustomWeather, © 2019

See weather overview